EHI
42 38 32 28 26 25 23 19 17 15 15 16 14 13 17 20 17 13 11 9 8 5 2 0 0 0 0 0 0 2 4 5 3 1 1 0 0 0 0 0 0 0 0
46 43 39 34 31 30 25 20 17 15 16 17 17 18 19 21 20 16 13 11 9 7 3 1 1 0 0 0 1 2 4 5 4 2 2 1 1 1 1 1 0 0 0
50 49 44 39 36 35 31 26 20 17 16 17 19 21 21 21 21 18 14 12 12 9 5 3 3 2 1 2 3 3 3 4 4 3 3 3 2 2 2 2 1 0 0
47 47 44 41 37 34 32 29 24 19 17 17 18 21 21 21 20 17 14 13 12 10 7 5 4 4 4 4 5 4 4 4 4 3 3 3 3 2 3 3 2 1 0
41 41 41 38 35 31 28 26 23 19 17 18 19 20 21 20 19 17 15 12 11 9 7 6 6 6 6 5 5 5 5 6 5 4 4 4 3 3 2 2 2 1 0
36 35 33 32 31 29 25 22 19 17 16 17 18 18 18 18 16 15 14 11 9 7 6 5 5 5 5 4 3 4 4 5 6 6 6 5 4 3 1 1 1 0 0
29 28 26 26 29 29 26 22 20 18 16 15 14 14 15 14 12 10 9 8 7 5 4 4 3 4 4 3 3 2 2 3 4 6 7 5 4 2 1 0 0 0 0
22 23 24 26 27 29 29 26 23 20 17 15 13 12 12 11 8 6 5 5 5 4 4 4 4 4 3 3 3 3 2 1 1 3 3 3 3 2 1 0 0 0 0
19 19 23 24 24 27 30 28 24 21 18 17 15 13 11 9 5 3 4 5 5 4 4 4 5 4 2 2 2 2 2 1 0 0 1 1 2 1 0 0 0 0 0
15 17 20 21 21 24 26 25 22 20 19 17 15 14 12 9 5 2 4 7 7 4 3 3 3 2 1 1 1 1 1 0 0 0 0 0 0 0 0 0 0 0 0
16 17 19 20 21 22 23 23 21 19 17 16 15 14 12 9 5 3 4 7 6 4 3 2 1 0 0 0 0 0 0 0 0 0 0 0 0 0 0 0 0 0 0
18 18 19 18 17 18 21 22 22 19 17 16 15 13 10 6 4 3 2 3 4 3 2 1 0 0 0 0 0 0 0 0 0 0 0 0 0 0 1 0 0 0 0
17 16 14 11 11 13 15 18 19 19 18 17 15 12 7 5 3 2 1 1 1 1 1 0 0 0 0 0 0 0 0 0 0 0 0 0 0 0 0 0 0 0 0
14 12 9 7 6 7 9 10 13 15 16 15 13 9 6 5 4 2 1 1 0 0 0 0 0 0 0 0 0 0 0 1 0 0 0 0 0 0 0 0 0 0 0
11 9 7 5 4 4 4 5 6 7 9 8 6 4 4 5 4 2 2 2 1 1 0 0 0 0 0 0 0 0 0 0 0 0 0 0 0 0 0 0 0 0 0
8 7 5 4 3 2 1 1 2 2 2 2 1 1 1 3 3 1 1 1 1 0 0 0 0 0 0 0 0 0 0 0 0 0 0 0 0 0 0 0 0 0 0
5 5 4 2 1 1 0 0 0 0 0 0 0 0 0 1 1 0 0 0 0 0 0 0 0 0 0 0 0 0 0 0 0 0 0 0 0 0 0 0 0 0 0
3 2 2 1 0 0 0 1 1 0 0 0 0 0 0 0 0 0 0 0 0 0 0 1 1 1 0 0 1 1 1 0 0 0 0 0 0 0 0 0 0 0 0
1 1 1 1 0 0 0 1 2 1 0 0 0 0 0 0 0 0 0 0 0 0 0 1 2 2 1 0 1 1 1 0 0 0 0 0 0 0 0 0 0 0 0
0 0 0 0 0 0 1 2 2 1 0 0 0 0 0 0 0 0 0 0 0 0 0 1 3 3 2 1 0 1 1 1 0 0 0 0 0 0 0 0 0 0 0
0 0 0 0 0 0 1 2 2 1 0 0 0 0 0 0 0 0 0 0 0 0 0 1 3 3 2 1 0 1 1 1 0 0 0 0 0 0 0 0 0 0 0
0 0 0 0 0 0 1 2 2 1 0 0 0 0 0 0 0 0 0 0 0 0 0 1 2 2 1 0 0 0 0 0 0 0 0 0 0 0 0 0 0 0 0
1 1 0 0 0 0 0 1 1 0 0 0 0 0 0 0 0 0 0 0 0 0 0 1 1 1 1 0 0 0 0 0 0 0 0 0 0 0 0 0 0 0 0
2 1 0 0 0 0 0 0 0 0 0 0 0 0 0 0 0 0 0 0 0 0 0 0 0 0 0 0 0 0 0 0 0 0 0 0 0 0 0 0 0 0 0
1 1 0 0 0 0 0 0 0 0 0 0 0 0 0 0 0 0 0 0 0 0 0 0 0 0 0 0 0 0 0 0 0 0 0 0 0 0 0 0 0 0 0
0 0 0 0 0 0 0 0 0 0 0 0 0 0 0 0 0 0 0 0 0 0 0 0 0 0 0 0 0 0 0 0 0 0 0 0 0 0 0 0 0 0 0
Wind_Speed
10 9 8 7 7 6 6 6 5 4 5 5 6 6 5 5 5 4 4 4 5 4 3 3 4 3 2 2 2 2 2 3 4 3 2 2 2 2 2 2 2 3 3
10 8 7 6 6 6 6 6 5 5 4 5 5 5 5 5 5 5 6 5 5 5 4 4 4 3 3 3 2 2 3 3 3 4 2 2 3 3 3 2 2 2 3
9 9 9 7 7 8 7 6 6 5 5 4 4 5 5 5 5 5 5 5 5 5 5 5 5 4 4 3 3 3 2 2 2 2 3 2 2 1 1 2 2 2 3
8 8 8 9 8 8 7 6 6 6 5 5 4 5 5 5 5 5 5 5 5 5 4 4 4 4 5 4 3 3 2 2 1 2 2 2 2 1 1 1 2 2 3
7 7 8 7 6 6 6 6 6 6 6 5 4 5 5 5 5 6 5 5 5 5 4 4 4 5 6 5 3 3 2 2 1 1 2 1 2 1 2 2 2 2 3
7 7 7 6 6 6 6 6 5 5 5 4 4 5 5 5 6 8 7 5 5 5 4 4 4 4 5 5 6 6 5 4 3 2 2 3 4 4 3 2 2 1 3
6 6 6 6 6 7 7 6 6 6 5 4 4 5 5 6 8 7 8 5 5 5 5 4 4 3 3 3 3 3 4 6 6 5 4 5 4 4 3 3 3 3 4
4 5 5 5 6 6 6 7 6 5 5 5 5 5 4 5 7 7 6 5 4 5 5 5 4 3 3 3 2 2 2 3 4 4 5 5 5 4 4 4 4 3 3
4 4 5 5 5 5 6 7 6 5 5 4 4 4 5 5 7 7 6 3 3 4 4 4 4 4 4 4 3 2 3 4 4 5 5 6 7 6 4 2 2 2 3
4 3 3 4 4 4 5 4 3 4 4 4 4 4 5 5 6 7 6 2 2 2 2 2 4 4 4 4 3 3 4 5 4 4 4 5 4 4 5 5 4 3 2
3 2 2 3 4 4 3 3 3 3 3 3 3 3 4 5 5 6 6 3 3 2 2 1 2 4 4 4 4 4 6 5 3 3 3 3 3 3 3 3 4 4 4
2 2 2 2 2 2 2 2 2 3 3 2 2 2 2 3 3 4 5 5 4 3 3 2 2 4 4 5 4 5 6 4 2 2 2 3 3 3 3 3 3 4 5
2 2 2 2 1 2 2 3 3 3 3 3 2 2 2 1 1 3 4 5 4 2 2 3 4 4 4 4 5 5 3 2 2 2 3 4 3 3 2 2 2 2 3
2 1 2 2 1 1 1 2 2 3 3 3 3 3 2 1 2 2 2 2 2 2 1 1 2 3 3 3 3 2 2 2 3 3 4 3 2 1 1 1 2 2 2
1 1 1 2 2 1 1 1 2 3 4 4 4 4 4 4 5 5 4 3 2 2 1 0 1 1 1 1 1 2 2 1 2 2 2 2 2 2 2 2 2 1 2
1 1 1 1 1 2 1 1 3 1 2 3 5 5 3 5 6 5 5 4 3 4 3 1 2 2 2 2 2 2 2 2 2 2 2 2 2 2 2 2 1 2 2
2 2 2 2 2 2 2 2 0 2 3 2 2 4 5 6 6 6 5 3 3 4 2 2 2 3 3 2 3 3 3 3 2 2 2 2 2 2 2 2 2 2 2
2 3 3 2 3 3 3 3 3 2 1 1 2 3 4 5 4 4 4 3 1 1 2 3 3 3 2 2 3 3 3 2 2 2 2 2 2 2 2 2 2 2 2
2 2 2 2 2 2 2 2 2 3 2 2 0 1 2 3 2 2 3 2 3 3 2 3 3 3 3 3 3 3 3 3 3 2 2 2 2 2 2 3 3 3 2
1 3 2 1 1 1 2 3 3 3 2 2 2 2 1 2 2 1 2 2 3 3 3 3 3 3 3 2 2 2 2 2 2 2 2 2 2 2 3 3 3 2 3
1 2 2 1 2 2 2 2 2 3 3 2 2 2 3 3 3 3 3 3 3 3 3 3 3 3 2 2 2 2 2 2 2 2 2 2 2 2 3 3 3 3 2
1 1 1 1 1 1 1 1 2 2 2 2 1 1 2 1 2 1 1 2 2 3 3 3 2 2 2 2 2 2 2 3 3 3 3 2 2 3 3 2 3 3 3
1 1 0 0 1 2 2 1 2 2 2 1 1 1 1 1 1 1 1 1 2 2 2 2 2 2 2 2 2 3 3 3 3 3 3 3 3 3 3 3 3 3 3
1 1 1 1 1 1 1 1 2 2 2 2 1 1 1 1 1 1 1 1 1 1 1 1 2 3 3 2 2 2 2 2 3 3 4 4 4 3 3 3 3 4 3
1 1 1 1 1 2 1 1 1 2 2 2 2 1 1 1 1 1 1 1 1 1 1 0 1 2 3 3 2 2 2 2 2 2 3 3 4 4 3 3 3 3 3
0 1 1 1 1 1 2 1 1 2 2 1 1 1 2 1 1 1 1 1 1 1 1 0 1 1 1 1 2 1 1 1 1 1 2 2 2 2 3 3 4 3 3
Wind_Direction
195 198 201 202 202 200 202 206 204 204 202 204 207 203 202 205 205 207 218 214 217 229 232 230 238 237 243 244 228 217 208 189 227 260 245 244 223 233 245 241 238 236 237
192 190 196 201 197 198 206 206 201 201 202 203 201 201 206 207 205 209 223 223 219 226 230 229 241 240 240 244 233 231 225 209 208 250 262 239 238 234 228 234 239 236 239
188 190 193 198 201 206 208 203 199 198 199 200 197 202 210 214 214 217 217 220 221 224 224 224 232 228 243 243 237 239 243 239 208 217 254 242 245 240 229 253 252 257 246
184 190 196 201 205 210 208 201 202 200 198 203 205 210 214 217 218 218 212 213 221 225 223 223 229 224 230 232 238 238 238 240 229 225 251 256 247 249 187 243 274 258 256
183 192 202 201 199 202 207 202 201 201 204 203 207 216 218 218 219 212 213 217 223 230 235 236 236 234 236 229 228 220 212 219 230 234 251 260 253 230 229 227 244 263 263
183 199 204 197 193 197 203 198 198 203 206 203 213 217 221 227 225 217 213 216 220 222 234 246 247 247 246 235 230 223 211 212 219 223 242 245 253 239 230 223 221 248 277
186 193 198 200 199 200 204 198 202 204 199 201 215 219 222 229 226 223 219 213 216 221 225 233 247 249 238 233 240 246 246 239 222 211 229 242 243 233 218 226 222 219 237
191 197 200 200 206 202 198 202 207 203 204 208 212 219 221 231 224 220 219 216 220 228 226 219 226 234 235 210 218 240 260 259 241 228 227 242 244 235 217 218 221 237 260
202 202 198 195 199 202 203 208 204 199 203 211 213 214 221 237 227 216 206 203 225 244 245 228 211 213 222 199 190 226 269 282 277 256 255 256 254 243 221 199 220 223 264
220 209 197 182 184 200 202 203 201 202 208 211 222 221 219 230 229 214 201 197 220 243 261 237 216 210 214 197 192 210 245 266 283 298 293 287 274 260 230 208 207 215 234
207 199 196 179 180 193 190 192 194 199 206 218 227 231 221 222 221 213 200 191 199 208 223 242 235 213 217 218 212 220 236 250 268 269 275 283 284 270 254 230 212 208 216
175 169 164 162 180 184 183 204 201 192 202 220 224 249 246 227 218 206 192 187 184 191 216 224 235 229 231 236 232 238 247 251 250 259 266 269 268 266 264 255 237 231 228
166 168 159 156 174 184 193 201 203 191 190 204 207 222 243 251 236 207 188 184 189 196 218 224 234 244 242 243 242 247 246 230 228 246 254 255 250 250 260 276 278 259 264
172 185 181 170 198 230 219 208 201 198 194 200 203 214 222 227 217 200 174 177 187 197 229 252 254 255 248 247 256 256 233 221 221 237 249 257 264 265 265 259 267 273 276
189 204 202 196 190 220 258 258 220 219 203 193 203 200 198 213 219 205 194 201 203 199 166 49 333 313 299 289 275 256 247 239 236 249 251 260 267 267 269 263 249 257 255
182 236 217 209 210 193 192 323 345 296 256 219 211 199 204 202 196 203 209 214 211 183 153 179 223 234 236 241 244 250 246 239 235 223 229 236 250 260 274 278 259 241 254
193 221 221 214 209 199 188 180 239 345 358 327 246 227 211 198 199 204 203 193 197 168 166 208 225 234 242 241 235 233 236 240 232 233 242 250 251 258 264 267 262 256 260
207 220 220 220 216 204 194 193 187 186 202 313 304 249 219 203 202 199 179 128 137 182 204 217 228 233 231 231 235 241 246 243 225 230 239 245 248 250 261 262 256 249 254
222 220 232 232 214 203 192 188 188 188 185 193 201 290 195 167 161 178 162 170 197 215 222 227 228 229 230 228 233 235 234 232 228 226 235 244 245 242 250 251 252 257 251
264 256 251 225 220 216 195 182 185 185 182 181 193 207 172 128 145 196 213 209 212 223 225 225 232 232 230 233 234 233 231 237 236 228 235 242 248 245 242 247 249 254 256
236 257 255 238 225 216 201 192 188 181 176 172 196 208 180 174 188 209 217 215 214 222 225 223 224 224 227 229 228 227 227 236 238 232 236 243 248 253 248 240 243 249 261
231 240 241 237 231 197 183 178 173 168 170 172 186 195 186 180 193 206 229 232 223 219 216 210 216 219 217 213 213 220 226 230 232 232 234 235 240 247 246 242 243 246 248
213 244 266 246 189 172 160 156 157 152 161 183 172 169 186 217 229 245 253 259 240 230 229 215 213 229 225 211 207 204 212 223 224 218 222 230 235 237 237 238 240 241 245
223 217 177 172 198 195 178 174 167 161 160 163 169 172 192 218 233 246 259 269 283 266 243 215 211 214 214 215 225 225 223 227 223 213 213 222 230 232 230 235 239 237 237
210 196 172 172 179 187 177 173 171 170 171 176 179 182 193 205 226 239 258 274 296 306 300 231 200 204 201 206 223 246 238 223 227 222 211 212 219 226 223 226 230 234 233
229 170 148 151 168 174 169 172 174 167 173 185 189 191 186 187 199 226 243 247 266 284 287 273 238 218 207 209 214 221 226 229 237 238 215 202 212 226 226 227 225 222 222